| time (UTC) | temp C | wind direction | speed KPH | gust KPH | rain 1hr cm | rain 24hr cm | rain mn cm | humidity % | barometer mb |
| 20260507171610 | 13 | 159 | 6.4 | 11.3 | 0.00 | 0.00 | 0.00 | 76 | 1012.3 |
| 20260507170056 | 12 | 172 | 8.0 | 16.1 | 0.00 | 0.00 | 0.00 | 75 | 1012.3 |
| 20260507164605 | 12 | 164 | 11.3 | 16.1 | 0.00 | 0.00 | 0.00 | 74 | 1012.4 |
| 20260507163052 | 13 | 159 | 8.0 | 16.1 | 0.00 | 0.00 | 0.00 | 74 | 1012.4 |
| 20260507161553 | 14 | 176 | 9.7 | 16.1 | 0.00 | 0.00 | 0.00 | 72 | 1012.1 |
| 20260507160050 | 13 | 154 | 9.7 | 14.5 | 0.00 | 0.00 | 0.00 | 73 | 1012.1 |
| 20260507154548 | 13 | 209 | 4.8 | 14.5 | 0.00 | 0.00 | 0.00 | 74 | 1012.2 |
| 20260507153049 | 13 | 161 | 8.0 | 16.1 | 0.00 | 0.00 | 0.00 | 73 | 1012.3 |
| 20260507151545 | 13 | 133 | 6.4 | 19.3 | 0.00 | 0.00 | 0.00 | 73 | 1012.4 |
| 20260507150045 | 13 | 136 | 4.8 | 16.1 | 0.00 | 0.00 | 0.00 | 73 | 1012.5 |
| 20260507144544 | 13 | 166 | 6.4 | 14.5 | 0.00 | 0.00 | 0.00 | 73 | 1012.6 |
| 20260507143045 | 13 | 176 | 8.0 | 14.5 | 0.00 | 0.00 | 0.00 | 72 | 1012.6 |
| 20260507141548 | 13 | 170 | 8.0 | 12.9 | 0.00 | 0.00 | 0.00 | 73 | 1012.8 |
| 20260507140042 | 13 | 147 | 3.2 | 16.1 | 0.00 | 0.00 | 0.00 | 71 | 1012.8 |
| 20260507134551 | 13 | 138 | 8.0 | 17.7 | 0.00 | 0.00 | 0.00 | 70 | 1012.5 |
| 20260507133040 | 13 | 155 | 11.3 | 17.7 | 0.00 | 0.00 | 0.00 | 69 | 1012.6 |
| 20260507131540 | 13 | 171 | 4.8 | 8.0 | 0.00 | 0.00 | 0.00 | 72 | 1012.7 |
| 20260507130041 | 13 | 182 | 8.0 | 16.1 | 0.00 | 0.00 | 0.00 | 72 | 1012.7 |
| 20260507124537 | 13 | 165 | 8.0 | 14.5 | 0.00 | 0.00 | 0.00 | 72 | 1012.7 |
| 20260507123037 | 13 | 175 | 6.4 | 11.3 | 0.00 | 0.00 | 0.00 | 73 | 1012.9 |
| 20260507121535 | 13 | 195 | 8.0 | 12.9 | 0.00 | 0.00 | 0.00 | 71 | 1012.9 |
| 20260507120034 | 13 | 181 | 4.8 | 9.7 | 0.00 | 0.00 | 0.00 | 68 | 1013.1 |
| 20260507114536 | 13 | 100 | 3.2 | 12.9 | 0.00 | 0.00 | 0.00 | 71 | 1013.1 |
| 20260507113031 | 13 | 105 | 0.0 | 16.1 | 0.00 | 0.00 | 0.00 | 73 | 1013.1 |
| 20260507111531 | 13 | 100 | 9.7 | 16.1 | 0.00 | 0.00 | 0.00 | 76 | 1013.2 |
| 20260507110033 | 12 | 178 | 0.0 | 11.3 | 0.00 | 0.00 | 0.00 | 77 | 1013.5 |
| 20260507104526 | 12 | 171 | 0.0 | 12.9 | 0.00 | 0.00 | 0.00 | 80 | 1013.6 |
| 20260507103027 | 11 | 45 | 3.2 | 6.4 | 0.00 | 0.00 | 0.00 | 83 | 1013.7 |
| 20260507101520 | 11 | 89 | 4.8 | 11.3 | 0.00 | 0.00 | 0.00 | 85 | 1014.0 |
| 20260507100012 | 10 | 121 | 3.2 | 11.3 | 0.00 | 0.00 | 0.00 | 87 | 1014.0 |
| 20260507094509 | 9 | 113 | 1.6 | 6.4 | 0.00 | 0.00 | 0.00 | 88 | 1013.9 |
| 20260507093005 | 8 | 109 | 1.6 | 9.7 | 0.00 | 0.00 | 0.00 | 89 | 1014.0 |
| 20260507091502 | 8 | 113 | 3.2 | 8.0 | 0.00 | 0.00 | 0.00 | 90 | 1014.0 |
| 20260507090108 | 8 | 120 | 1.6 | 6.4 | 0.00 | 0.00 | 0.00 | 90 | 1014.1 |
| 20260507084559 | 8 | 107 | 0.0 | 6.4 | 0.00 | 0.00 | 0.00 | 91 | 1014.0 |
| 20260507083056 | 7 | 98 | 0.0 | 4.8 | 0.00 | 0.00 | 0.00 | 92 | 1014.2 |
| 20260507081556 | 7 | 113 | 0.0 | 4.8 | 0.00 | 0.00 | 0.00 | 92 | 1014.1 |
| 20260507080054 | 7 | 100 | 0.0 | 4.8 | 0.00 | 0.00 | 0.00 | 92 | 1014.0 |
| 20260507074554 | 7 | 95 | 1.6 | 4.8 | 0.00 | 0.00 | 0.00 | 93 | 1014.2 |
| 20260507073053 | 6 | 94 | 1.6 | 4.8 | 0.00 | 0.00 | 0.00 | 93 | 1014.0 |
| 20260507071556 | 6 | 94 | 0.0 | 4.8 | 0.00 | 0.00 | 0.00 | 93 | 1014.0 |
| 20260507070100 | 6 | 96 | 3.2 | 6.4 | 0.00 | 0.00 | 0.00 | 93 | 1013.7 |
| 20260507064549 | 6 | 105 | 0.0 | 4.8 | 0.00 | 0.00 | 0.00 | 93 | 1013.6 |
| 20260507063049 | 6 | 94 | 0.0 | 4.8 | 0.00 | 0.00 | 0.00 | 94 | 1013.6 |
| 20260507061544 | 6 | 94 | 0.0 | 3.2 | 0.00 | 0.00 | 0.00 | 94 | 1013.6 |
| 20260507060101 | 6 | 92 | 1.6 | 4.8 | 0.00 | 0.00 | 0.00 | 93 | 1013.5 |
| 20260507054546 | 6 | 91 | 0.0 | 3.2 | 0.00 | 0.00 | 0.00 | 93 | 1013.5 |
| 20260507053049 | 6 | 90 | 0.0 | 3.2 | 0.00 | 0.00 | 0.00 | 93 | 1013.4 |
| 20260507051542 | 6 | 90 | 1.6 | 6.4 | 0.00 | 0.00 | 0.00 | 93 | 1013.5 |
| 20260507050042 | 6 | 106 | 0.0 | 3.2 | 0.00 | 0.00 | 0.00 | 93 | 1013.4 |
| 20260507044539 | 6 | 107 | 0.0 | 3.2 | 0.00 | 0.00 | 0.00 | 93 | 1013.5 |
| 20260507043037 | 6 | 107 | 0.0 | 3.2 | 0.00 | 0.00 | 0.00 | 92 | 1013.3 |
| 20260507041538 | 6 | 107 | 0.0 | 4.8 | 0.00 | 0.00 | 0.00 | 92 | 1013.3 |
| 20260507040035 | 6 | 108 | 1.6 | 4.8 | 0.00 | 0.00 | 0.00 | 92 | 1013.2 |
| 20260507034550 | 6 | 76 | 0.0 | 3.2 | 0.00 | 0.00 | 0.00 | 92 | 1013.2 |
| 20260507033038 | 6 | 75 | 0.0 | 3.2 | 0.00 | 0.00 | 0.00 | 92 | 1013.3 |
| 20260507031530 | 6 | 75 | 0.0 | 0.0 | 0.00 | 0.00 | 0.00 | 92 | 1013.3 |
| 20260507030030 | 6 | 75 | 0.0 | 1.6 | 0.00 | 0.00 | 0.00 | 91 | 1013.5 |
| 20260507024546 | 6 | 75 | 0.0 | 3.2 | 0.00 | 0.00 | 0.00 | 91 | 1013.3 |
| 20260507023028 | 6 | 75 | 0.0 | 1.6 | 0.00 | 0.00 | 0.00 | 91 | 1013.4 |
| 20260507021527 | 6 | 75 | 0.0 | 3.2 | 0.00 | 0.00 | 0.00 | 91 | 1013.5 |
| 20260507020027 | 6 | 74 | 0.0 | 4.8 | 0.00 | 0.00 | 0.00 | 91 | 1013.4 |
| 20260507014536 | 6 | 72 | 0.0 | 3.2 | 0.00 | 0.00 | 0.00 | 90 | 1013.4 |
| 20260507013025 | 6 | 72 | 0.0 | 4.8 | 0.00 | 0.00 | 0.00 | 90 | 1013.4 |
| 20260507011536 | 7 | 71 | 0.0 | 1.6 | 0.00 | 0.00 | 0.00 | 90 | 1013.5 |
| 20260507010022 | 7 | 71 | 0.0 | 4.8 | 0.00 | 0.00 | 0.00 | 89 | 1013.4 |
| 20260507004521 | 7 | 66 | 1.6 | 4.8 | 0.00 | 0.00 | 0.00 | 89 | 1013.4 |
| 20260507003021 | 7 | 81 | 1.6 | 4.8 | 0.00 | 0.00 | 0.00 | 89 | 1013.5 |
| 20260507001519 | 7 | 86 | 0.0 | 0.0 | 0.00 | 0.00 | 0.00 | 88 | 1013.6 |
| 20260507000018 | 7 | 86 | 0.0 | 4.8 | 0.00 | 0.00 | 0.00 | 88 | 1013.5 |
| 20260506234519 | 7 | 82 | 1.6 | 6.4 | 0.00 | 0.00 | 0.00 | 88 | 1013.5 |
| 20260506233015 | 7 | 71 | 1.6 | 4.8 | 0.00 | 0.00 | 0.00 | 87 | 1013.4 |
| 20260506231514 | 7 | 88 | 0.0 | 4.8 | 0.00 | 0.00 | 0.00 | 86 | 1013.4 |
| 20260506230016 | 7 | 96 | 0.0 | 4.8 | 0.00 | 0.00 | 0.00 | 85 | 1013.4 |
| 20260506224509 | 8 | 80 | 0.0 | 6.4 | 0.00 | 0.00 | 0.00 | 85 | 1013.3 |
| 20260506223008 | 8 | 58 | 0.0 | 6.4 | 0.00 | 0.00 | 0.00 | 84 | 1013.3 |
| 20260506221507 | 8 | 58 | 3.2 | 9.7 | 0.00 | 0.00 | 0.00 | 83 | 1013.2 |
| 20260506220007 | 8 | 88 | 3.2 | 8.0 | 0.00 | 0.00 | 0.00 | 82 | 1013.2 |
| 20260506214506 | 8 | 89 | 1.6 | 12.9 | 0.00 | 0.00 | 0.00 | 81 | 1013.1 |
| 20260506213005 | 8 | 46 | 4.8 | 11.3 | 0.00 | 0.00 | 0.00 | 81 | 1012.8 |
| 20260506211505 | 8 | 53 | 3.2 | 11.3 | 0.00 | 0.00 | 0.00 | 80 | 1012.8 |
| 20260506210004 | 8 | 51 | 3.2 | 12.9 | 0.00 | 0.00 | 0.00 | 79 | 1012.7 |
| 20260506204505 | 8 | 52 | 3.2 | 8.0 | 0.00 | 0.00 | 0.00 | 78 | 1012.7 |
| 20260506203011 | 8 | 61 | 3.2 | 8.0 | 0.00 | 0.00 | 0.00 | 77 | 1012.6 |
| 20260506201506 | 9 | 51 | 3.2 | 8.0 | 0.00 | 0.00 | 0.00 | 75 | 1012.5 |
| 20260506200003 | 9 | 59 | 3.2 | 8.0 | 0.00 | 0.00 | 0.00 | 73 | 1012.2 |
| 20260506194502 | 10 | 78 | 0.0 | 9.7 | 0.00 | 0.00 | 0.00 | 71 | 1012.1 |
| 20260506193002 | 10 | 59 | 3.2 | 8.0 | 0.00 | 0.00 | 0.00 | 69 | 1012.0 |
| 20260506191601 | 10 | 74 | 0.0 | 1.6 | 0.00 | 0.00 | 0.00 | 69 | 1011.9 |
| 20260506190053 | 11 | 74 | 0.0 | 1.6 | 0.00 | 0.00 | 0.00 | 68 | 1011.8 |
| 20260506184553 | 11 | 74 | 0.0 | 4.8 | 0.00 | 0.00 | 0.00 | 67 | 1011.8 |
| 20260506183053 | 11 | 57 | 1.6 | 9.7 | 0.00 | 0.00 | 0.00 | 64 | 1011.9 |
| 20260506181552 | 12 | 62 | 3.2 | 9.7 | 0.00 | 0.00 | 0.00 | 64 | 1011.8 |
| 20260506180052 | 12 | 55 | 3.2 | 6.4 | 0.00 | 0.00 | 0.00 | 61 | 1011.6 |
| 20260506174558 | 12 | 36 | 4.8 | 11.3 | 0.00 | 0.00 | 0.00 | 60 | 1011.6 |
| 20260506173111 | 12 | 69 | 4.8 | 11.3 | 0.00 | 0.00 | 0.00 | 62 | 1011.5 |